Content
SEND FEEDBACK

Daily
Averages
Monthly
Summary
United States of America

HUDSON FALLS, NEW YORK


Home > North America > United States > New York
Elevation: 328 feet     Latitude: 43 20N     Longitude: 073 36W

WEATHER
 
SELECT A DAY
Number of Records: 210,730;   Date Range: 1/1/95 - 4/19/14
 
SHARE

PRINT THIS DATA

[ ← Previous Day ]
WEATHER ALMANAC - FEBRUARY 5, 2013
[ Next Day → ]
[ °C ]   °F
Weather ElementAverageHighLow
Temperature15.8 °F24.1 °F (1:53 pm)3.9 °F (5:53 am)
Dewpoint4.8 °F12.9 °F (10:53 pm)-2 °F (8:53 am)
Humidity63.8 %84 % (3:53 am)42 % (1:53 pm)
Barometer29.98 in30.06 in (7:53 am)29.92 in (8:53 pm)
Wind Speed1.9 mph8.1 mph (8:53 am)
Weather ElementAverage
Visibility10 mi
Wind DirectionNNE (33.5 °)

Weather ElementTotal
Precipitation---
Heating Degree Days51 (Base 65)
Averaged from 23 records on February 5, 2013
WEATHER CONDITIONS BREAKOUT
WIND DIRECTION BREAKOUT
WEATHER BY HOUR - FEBRUARY 5, 2013
[ °C ]   °F
Local TimeTemperatureDewpointHumidityBarometerVisibilityWind DirectionWind SpeedGust SpeedPrecipitationEventsConditions
1:53 AM10.0 °F3.9 °F76 %29.98 in10.0 miCalmClear
2:53 AM8.1 °F3.0 °F80 %29.97 in10.0 miCalmClear
3:53 AM7.0 °F3.0 °F84 %29.98 in10.0 miCalmClear
4:53 AM6.1 °F1.9 °F83 %29.99 in10.0 miCalmClear
5:53 AM3.9 °F0.0 °F84 %30.01 in10.0 miCalmClear
6:53 AM6.1 °F1.9 °F83 %30.02 in10.0 miENE (70°)3.5 mphClear
7:53 AM7.0 °F1.0 °F77 %30.06 in10.0 miEast (80°)3.5 mphClear
8:53 AM10.0 °F-2.0 °F58 %30.06 in10.0 miENE (60°)8.1 mphClear
9:53 AM12.0 °F-0.9 °F56 %30.06 in10.0 miENE (60°)4.6 mphClear
10:53 AM16.0 °F1.0 °F52 %30.05 in10.0 miVariable3.5 mphClear
11:53 AM19.0 °F1.9 °F47 %30.03 in10.0 miCalmClear
12:53 PM21.9 °F3.0 °F44 %29.99 in10.0 miSE (130°)5.8 mphClear
1:53 PM24.1 °F3.9 °F42 %29.96 in10.0 miSouth (180°)4.6 mphClear
2:53 PM24.1 °F3.9 °F42 %29.96 in10.0 miVariable3.5 mphClear
3:53 PM24.1 °F6.1 °F46 %29.96 in10.0 miESE (120°)3.5 mphClear
4:53 PM24.1 °F7.0 °F48 %29.95 in10.0 miCalmClear
5:53 PM23.0 °F6.1 °F48 %29.93 in10.0 miENE (70°)3.5 mphClear
6:53 PM19.0 °F8.1 °F62 %29.94 in10.0 miCalmClear
7:53 PM18.0 °F10.0 °F71 %29.94 in10.0 miCalmMostly Cloudy
8:53 PM19.0 °F10.9 °F71 %29.92 in10.0 miCalmClear
9:53 PM19.9 °F10.9 °F68 %29.94 in10.0 miCalmOvercast
10:53 PM19.9 °F12.9 °F74 %29.93 in10.0 miCalmOvercast
11:53 PM21.0 °F12.9 °F71 %29.94 in10.0 miCalmOvercast
Hourly data recorded from KGFL, located 0.89 miles away from Hudson Falls, New York







STORIES FROM OUR PARTNERS